THORAD AGENA D DEB

Satellite information

Favourite Embed

Satellite Type and Status

DEBRISIN ORBIT

Key statistics

Satellite THORAD AGENA D DEB at a glance.

Uptime

20288

Days in orbit

Revolutions

≈ 14.6

Per day

Orbit

SSO

Sun Synchronous Orbit

Inclination

100.0

Latest

Satellite identification and parameters

Extended collection of information and parameters for THORAD AGENA D DEB.

Object identification

Identified? True

Debris? True

Object name: THORAD AGENA D DEB

International designator: 1970-025AM

Object number (NORAD): 4653

Object ID (CCSDS): 4653

Country: UNITED STATES OF AMERICA (US)

Current information (Y/N): Y

RCS size: SMALL

Orbital parameters

Period: 98.621 minutes

Inclination: 99.992 deg

SMA: 7070.869 km

Apoapsis: 701.57 km

Periapsis: 683.898 km

RAAN: 197.1405 deg

Eccentricy: 0.00124959

Argument of periapsis: 283.0572 deg

Mean anomaly: 76.9227 deg

Mean motion: 14.60136894 rev/day

Mean motion (dot): 0.00017218 rev/day2

B* drag term: 0.0035774152 1/REarth

Two-line elements (TLE)

Creation date: Oct. 24, 2025, 2:48 a.m.

Reference frame: TEME

Reference center: EARTH

Epoch: Oct. 23, 2025, 3:50 p.m. UTC

TLE line 0: 0 THORAD AGENA D DEB

TLE line 1: 1 04653U 70025AM 25296.65996604 .00017218 00000-0 35774-2 0 9998

TLE line 2: 2 04653 99.9920 197.1405 0012496 283.0572 76.9227 14.60136894832596

Live tracking on map

Real-time ground track for satellite THORAD AGENA D DEB.

In-orbit conjunctions

A list of the most updated potential collisions computed for object THORAD AGENA D DEB.

Target Orbit TCA Probability of collision Miss distance Type
CZ-6A DEB LEO 2024-12-10 02:06:48 0.00158246 145.0 (m) DEBRIS
NOAA 17 DEB SSO 2024-11-09 00:55:54 0.0002088211 823.0 (m) DEBRIS
CZ-6A DEB LEO 2024-10-28 08:58:57 0.0001007256 753.0 (m) DEBRIS
CBERS 2B SSO 2024-09-13 06:10:03 0.0001018611 345.0 (m) PAYLOAD

Associated space launch

Meteorological research and development satellite

THORAD AGENA D DEB was lifted into orbit during the mission ‘Thorad SLV-2G Agena D | Nimbus 4’, on board a Thorad SLV-2G Agena D space rocket.

The launch took place on April 8, 1970, 8:17 a.m. from Space Launch Complex 2E.

For more information about the launch, click the button.

Launch to space Thorad SLV-2G Agena D | Nimbus 4
Thorad SLV-2G Agena D | Nimbus 4

Agency: N/A

Status: Launch Successful

Launch date: April 8, 1970, 8:17 a.m. UTC

Rocket: Thorad SLV-2G Agena D

Launch pad: Space Launch Complex 2E

Location: Vandenberg SFB, CA, USA

...

Latest news about this satellite

There are no fresh news available about this satellite. Check back as we update our databases every day.


Newsletter sign-up

Weekly statistics, charts and insights to help you stay on top of the space industry.